Location: Bijele Vode
(45.2833°N, 16.2000°E)
Time: 01:05:16
(UTC+00:00)

USA 238 - Pass Details

Date: 18 September 2020
Orbit: 1006 x 1206 km, 63.4° (Epoch: 25 October)

Event Time Altitude Azimuth Distance (km) Brightness Sun altitude
Rises 19:33:58 0° 320° (NW) 3,957 7.8 -26.5°
Reaches altitude 10° 19:36:37 10° 318° (NW) 3,023 7.0 -26.8°
Maximum altitude 19:43:47 67° 238° (WSW) 1,262 4.0 -27.9°
Enters shadow 19:45:44 49° 180° (S) 1,477 4.1 -28.2°
